Location: *
(35.2348°S, 91.3916°E)
Time: 22:47:29
(UTC+00:00)

Cosmos 1607 - Pass Details

Date: 23 October 2019
Orbit: 929 x 973 km, 65.0° (Epoch: 16 November)

Event Time Altitude Azimuth Distance (km) Brightness Sun altitude
Exits shadow 20:37:32 58° 258° (WSW) 1,129 4.0 -27.0°
Maximum altitude 20:38:00 60° 238° (WSW) 1,115 4.1 -26.9°
Drops below altitude 10° 20:44:22 10° 158° (SSE) 2,744 7.1 -25.9°
Sets 20:47:00 0° 154° (SSE) 3,696 8.0 -25.5°
